Weather History for Claremore, OK

Change the Weather History Date:

Monday, February 18, 2013

  Actual Average (KTUL) Record (KTUL)
Temperature  
Mean Temperature 48 °F 43 °F  
Max Temperature 60 °F 54 °F 78 °F (1930)
Min Temperature 35 °F 32 °F 2 °F (1936)
Degree Days  
Heating Degree Days 18 22  
Month to date heating degree days 435  
Since 1 July heating degree days 2708  
Moisture  
Dew Point 37 °F    
Average Humidity 58    
Maximum Humidity 77    
Minimum Humidity 39    
Precipitation  
Precipitation 0.00 in 0.07 in 1.35 in (1974)
Month to date precipitation 1.09  
Year to date precipitation 2.75  
Sea Level Pressure  
Sea Level Pressure 29.82 in    
Wind  
Wind Speed 20 mph (WSW)    
Max Wind Speed 28 mph    
Max Gust Speed 37 mph    
Visibility 10 miles    
Events Rain , Thunderstorm    
T = Trace of Precipitation, MM = Missing Value Source: NWS Daily Summary

Daily Weather History Graph

Daily Weather History Graph

Search for Another Location

Airport:

Trip Planner

Search our weather history database for the weather conditions in past years. The results will help you decide how hot, cold, wet, or windy it might be!

Date:

Astronomy

Feb. 18, 2013 Rise Set
Actual Time 7:05 AM CST 6:06 PM CST
Civil Twilight 6:39 AM CST 6:32 PM CST
Nautical Twilight 6:09 AM CST 7:02 PM CST
Astronomical Twilight 5:39 AM CST 7:32 PM CST
Moon 11:57 AM CST (2/18) 1:41 AM CST (2/18)
Length of Visible Light 11h 52m
Length of Day
11h 00m
First Quarter, 58% of the Moon is Illuminated
Feb 18
First Quarter
Feb 25
Full
Mar 4
Last Quarter
Mar 11
New
Mar 19
First Quarter

Hourly Weather History & Observations

Time (CST) Temp. Windchill Dew Point Humidity Pressure Visibility Wind Dir Wind Speed Gust Speed Precip Events Conditions
12:15 AM 55.4 °F - 32.0 °F 41% 29.80 in 10.0 mi South 23.0 mph 32.2 mph N/A   Clear
12:35 AM 55.4 °F - 32.0 °F 41% 29.80 in 10.0 mi South 18.4 mph 23.0 mph N/A   Clear
12:55 AM 55.4 °F - 32.0 °F 41% 29.80 in 10.0 mi South 20.7 mph 26.5 mph N/A   Clear
1:15 AM 55.4 °F - 33.8 °F 44% 29.80 in 10.0 mi South 19.6 mph 29.9 mph N/A   Clear
1:35 AM 55.4 °F - 35.6 °F 47% 29.80 in 10.0 mi South 20.7 mph 29.9 mph N/A   Clear
1:55 AM 53.6 °F - 35.6 °F 51% 29.79 in 10.0 mi South 20.7 mph 27.6 mph N/A   Clear
2:15 AM 53.6 °F - 37.4 °F 54% 29.78 in 10.0 mi South 23.0 mph 28.8 mph N/A   Clear
2:35 AM 53.6 °F - 37.4 °F 54% 29.78 in 10.0 mi South 20.7 mph 29.9 mph N/A   Clear
2:55 AM 53.6 °F - 39.2 °F 58% 29.77 in 10.0 mi South 21.9 mph 31.1 mph N/A   Clear
3:15 AM 53.6 °F - 41.0 °F 62% 29.76 in 10.0 mi South 20.7 mph 31.1 mph N/A   Clear
3:35 AM 53.6 °F - 41.0 °F 62% 29.75 in 10.0 mi South 20.7 mph 33.4 mph N/A   Clear
3:55 AM 53.6 °F - 41.0 °F 62% 29.75 in 10.0 mi South 19.6 mph 32.2 mph N/A   Clear
4:15 AM 53.6 °F - 41.0 °F 62% 29.74 in 10.0 mi South 24.2 mph 32.2 mph N/A   Clear
4:55 AM 53.6 °F - 42.8 °F 67% 29.73 in 10.0 mi South 26.5 mph 32.2 mph N/A   Mostly Cloudy
5:15 AM 53.6 °F - 42.8 °F 67% 29.73 in 10.0 mi South 19.6 mph 31.1 mph N/A   Overcast
5:35 AM 53.6 °F - 42.8 °F 67% 29.72 in 10.0 mi South 23.0 mph 34.5 mph N/A   Overcast
5:55 AM 53.6 °F - 44.6 °F 72% 29.71 in 10.0 mi South 20.7 mph 33.4 mph N/A   Overcast
6:15 AM 53.6 °F - 44.6 °F 72% 29.70 in 10.0 mi South 23.0 mph 33.4 mph N/A   Overcast
6:35 AM 53.6 °F - 44.6 °F 72% 29.70 in 10.0 mi South 20.7 mph 36.8 mph N/A   Overcast
6:55 AM 53.6 °F - 44.6 °F 72% 29.69 in 10.0 mi South 27.6 mph 35.7 mph N/A   Mostly Cloudy
7:15 AM 53.6 °F - 44.6 °F 72% 29.69 in 10.0 mi South 24.2 mph 29.9 mph N/A   Overcast
7:35 AM 53.6 °F - 44.6 °F 72% 29.70 in 10.0 mi South 19.6 mph 31.1 mph N/A   Overcast
7:55 AM 55.4 °F - 44.6 °F 67% 29.70 in 10.0 mi South 20.7 mph 29.9 mph N/A   Overcast
8:15 AM 55.4 °F - 46.4 °F 72% 29.70 in 10.0 mi South 20.7 mph 31.1 mph N/A   Overcast
8:35 AM 55.4 °F - 46.4 °F 72% 29.70 in 10.0 mi South 21.9 mph 27.6 mph N/A   Overcast
9:15 AM 55.4 °F - 46.4 °F 72% 29.69 in 10.0 mi SSW 20.7 mph 29.9 mph N/A   Overcast
9:35 AM 55.4 °F - 46.4 °F 72% 29.69 in 10.0 mi South 20.7 mph 26.5 mph N/A   Mostly Cloudy
9:55 AM 55.4 °F - 46.4 °F 72% 29.68 in 10.0 mi South 19.6 mph 24.2 mph N/A   Mostly Cloudy
10:15 AM 57.2 °F - 48.2 °F 72% 29.68 in 10.0 mi South 21.9 mph 28.8 mph N/A   Mostly Cloudy
10:35 AM 57.2 °F - 48.2 °F 72% 29.67 in 10.0 mi South 20.7 mph 26.5 mph N/A   Scattered Clouds
10:55 AM 57.2 °F - 48.2 °F 72% 29.67 in 10.0 mi South 19.6 mph 25.3 mph N/A   Scattered Clouds
11:15 AM 57.2 °F - 50.0 °F 77% 29.67 in 10.0 mi SSW 18.4 mph 23.0 mph N/A   Mostly Cloudy
11:35 AM 59.0 °F - 48.2 °F 67% 29.67 in 10.0 mi SW 25.3 mph 33.4 mph N/A Rain Light Rain
12:15 PM 55.4 °F - 42.8 °F 63% 29.69 in 10.0 mi West 19.6 mph 33.4 mph N/A Rain Light Rain
12:35 PM 60.8 °F - 41.0 °F 48% 29.69 in 10.0 mi West 27.6 mph 34.5 mph N/A   Clear
12:55 PM 59.0 °F - 37.4 °F 45% 29.71 in 10.0 mi West 24.2 mph 35.7 mph N/A   Scattered Clouds
1:15 PM 57.2 °F - 33.8 °F 41% 29.71 in 10.0 mi West 25.3 mph 33.4 mph N/A   Scattered Clouds
1:35 PM 59.0 °F - 33.8 °F 39% 29.72 in 10.0 mi WNW 19.6 mph 31.1 mph N/A Thunderstorm Clear
1:55 PM 57.2 °F - 33.8 °F 41% 29.73 in 10.0 mi NW 19.6 mph 32.2 mph N/A   Clear
2:15 PM 55.4 °F - 33.8 °F 44% 29.75 in 10.0 mi WNW 23.0 mph 31.1 mph N/A   Clear
2:35 PM 55.4 °F - 33.8 °F 44% 29.75 in 10.0 mi NW 21.9 mph 32.2 mph N/A   Clear
2:55 PM 55.4 °F - 33.8 °F 44% 29.78 in 10.0 mi NW 19.6 mph 31.1 mph N/A   Clear
3:15 PM 53.6 °F - 32.0 °F 44% 29.79 in 10.0 mi NW 23.0 mph 32.2 mph N/A   Clear
3:35 PM 53.6 °F - 32.0 °F 44% 29.81 in 10.0 mi NW 19.6 mph 28.8 mph N/A   Clear
3:55 PM 53.6 °F - 32.0 °F 44% 29.82 in 10.0 mi NW 18.4 mph 28.8 mph N/A   Clear
4:15 PM 53.6 °F - 32.0 °F 44% 29.84 in 10.0 mi NNW 19.6 mph 31.1 mph N/A   Clear
4:35 PM 53.6 °F - 32.0 °F 44% 29.86 in 10.0 mi NW 20.7 mph 27.6 mph N/A   Clear
4:55 PM 53.6 °F - 32.0 °F 44% 29.87 in 10.0 mi NW 19.6 mph 28.8 mph N/A   Clear
5:15 PM 51.8 °F - 32.0 °F 47% 29.90 in 10.0 mi NNW 20.7 mph 29.9 mph N/A   Clear
5:35 PM 50.0 °F - 32.0 °F 50% 29.92 in 10.0 mi NW 13.8 mph 25.3 mph N/A   Clear
5:55 PM 48.2 °F - 32.0 °F 54% 29.94 in 10.0 mi NNW 12.7 mph 27.6 mph N/A   Clear
6:15 PM 46.4 °F 41.5 °F 32.0 °F 57% 29.95 in 10.0 mi NNW 10.4 mph 17.3 mph N/A   Clear
6:35 PM 46.4 °F 42.9 °F 32.0 °F 57% 29.96 in 10.0 mi North 6.9 mph - N/A   Clear
6:55 PM 44.6 °F 41.4 °F 32.0 °F 61% 29.98 in 10.0 mi North 5.8 mph - N/A   Clear
7:35 PM 44.6 °F 40.2 °F 32.0 °F 61% 30.02 in 10.0 mi North 8.1 mph - N/A   Clear
7:55 PM 42.8 °F 38.6 °F 30.2 °F 61% 30.04 in 10.0 mi North 6.9 mph - N/A   Clear
8:15 PM 42.8 °F 38.6 °F 30.2 °F 61% 30.05 in 10.0 mi North 6.9 mph - N/A   Clear
8:35 PM 41.0 °F 35.8 °F 30.2 °F 65% 30.07 in 10.0 mi North 8.1 mph - N/A   Clear
9:15 PM 41.0 °F 35.8 °F 28.4 °F 61% 30.10 in 10.0 mi North 8.1 mph - N/A   Clear
9:55 PM 41.0 °F 33.9 °F 26.6 °F 57% 30.13 in 10.0 mi North 12.7 mph 19.6 mph N/A   Clear
10:15 PM 39.2 °F 33.0 °F 26.6 °F 61% 30.14 in 10.0 mi North 9.2 mph 18.4 mph N/A   Clear
10:35 PM 37.4 °F 33.8 °F 24.8 °F 60% 30.16 in 10.0 mi North 4.6 mph - N/A   Clear
11:15 PM 37.4 °F 32.1 °F 24.8 °F 60% 30.18 in 10.0 mi North 6.9 mph - N/A   Clear
11:35 PM 35.6 °F 32.8 °F 23.0 °F 60% 30.19 in 10.0 mi North 3.5 mph - N/A   Clear
11:55 PM 35.6 °F 31.7 °F 23.0 °F 60% 30.19 in 10.0 mi NNE 4.6 mph - N/A   Clear